Location: Althorst
(53.6379°N, 10.7715°E)
Time: 17:11:25
(UTC+00:00)

Cosmos 2369 Rocket - Pass Details

Date: 10 December 2019
Orbit: 828 x 853 km, 71.0° (Epoch: 19 January)

Event Time Altitude Azimuth Distance (km) Brightness Sun altitude
Rises 19:00:14 0° 325° (NW) 3,392 5.9 -34.5°
Reaches altitude 10° 19:02:46 10° 319° (NW) 2,457 5.1 -34.9°
Enters shadow 19:06:59 39° 278° (W) 1,248 3.4 -35.5°
